CXA975 ZSQD-ZLXY

Flight info

Callsign CXA975
Flight time 1h 58m
Altitude 36100
Route WFG W103 MUMUN W4 NSH
Aircraft B788/H-V/N

Departure

Time 2026-04-28 02:29
Airport Qingdao Jiaodong International Airport (ZSQD)

Arrival

Time 2026-04-28 04:27
Airport Xi'an Xianyang International Airport (ZLXY)
Time Latitude Longitude Altitude Speed Heading
2026-04-28 02:20 36.36750 120.08685 42 ft 0 kts 252°
2026-04-28 02:21 36.36754 120.08704 41 ft 2 kts 252°
2026-04-28 02:21 36.36759 120.08723 40 ft 2 kts 252°
2026-04-28 02:21 36.36764 120.08742 39 ft 2 kts 252°
2026-04-28 02:22 36.36769 120.08761 39 ft 2 kts 253°
2026-04-28 02:22 36.36768 120.08781 37 ft 2 kts 338°
2026-04-28 02:22 36.36771 120.08781 38 ft 2 kts 345°
2026-04-28 02:22 36.36801 120.08772 42 ft 7 kts 346°
2026-04-28 02:23 36.36862 120.08758 40 ft 11 kts 349°
2026-04-28 02:23 36.36945 120.08792 42 ft 16 kts 48°
2026-04-28 02:23 36.36994 120.08958 41 ft 22 kts 73°
2026-04-28 02:23 36.37043 120.09138 41 ft 22 kts 72°
2026-04-28 02:24 36.37090 120.09317 41 ft 22 kts 72°
2026-04-28 02:24 36.37103 120.09488 41 ft 18 kts 123°
2026-04-28 02:24 36.37003 120.09537 40 ft 16 kts 163°
2026-04-28 02:24 36.36897 120.09579 41 ft 16 kts 163°
2026-04-28 02:25 36.36781 120.09624 41 ft 19 kts 162°
2026-04-28 02:25 36.36652 120.09675 41 ft 20 kts 162°
2026-04-28 02:25 36.36511 120.09732 40 ft 22 kts 162°
2026-04-28 02:25 36.36364 120.09785 41 ft 22 kts 165°
2026-04-28 02:26 36.36217 120.09842 41 ft 22 kts 160°
2026-04-28 02:26 36.36071 120.09903 41 ft 23 kts 162°
2026-04-28 02:26 36.35918 120.09961 41 ft 23 kts 161°
2026-04-28 02:26 36.35761 120.10026 42 ft 24 kts 162°
2026-04-28 02:27 36.35600 120.10090 41 ft 24 kts 162°
2026-04-28 02:27 36.35440 120.10153 41 ft 24 kts 162°
2026-04-28 02:27 36.35284 120.10214 41 ft 19 kts 161°
2026-04-28 02:27 36.35242 120.10333 38 ft 15 kts 83°
2026-04-28 02:28 36.35299 120.10417 41 ft 12 kts
2026-04-28 02:28 36.35379 120.10397 41 ft 12 kts 344°
2026-04-28 02:28 36.35575 120.10321 43 ft 62 kts 342°
2026-04-28 02:28 36.36235 120.10062 40 ft 135 kts 342°
2026-04-28 02:29 36.37326 120.09657 237 ft 182 kts 346°
2026-04-28 02:29 36.38586 120.09165 1140 ft 199 kts 345°
2026-04-28 02:29 36.39822 120.08698 2662 ft 180 kts 342°
2026-04-28 02:29 36.41076 120.08151 3154 ft 204 kts 343°
2026-04-28 02:30 36.42516 120.07582 3499 ft 230 kts 344°
2026-04-28 02:30 36.44071 120.06973 4246 ft 232 kts 344°
2026-04-28 02:30 36.45602 120.06368 5126 ft 231 kts 343°
2026-04-28 02:30 36.47113 120.05770 5932 ft 230 kts 343°
2026-04-28 02:31 36.48636 120.05166 6722 ft 230 kts 342°
2026-04-28 02:31 36.50169 120.04560 7424 ft 232 kts 341°
2026-04-28 02:31 36.51712 120.03948 8119 ft 233 kts 340°
2026-04-28 02:31 36.53263 120.03333 8818 ft 234 kts 340°
2026-04-28 02:32 36.54818 120.02716 9522 ft 235 kts 339°
2026-04-28 02:32 36.56385 120.02094 10166 ft 237 kts 338°
2026-04-28 02:32 36.57944 120.01475 10740 ft 240 kts 338°
2026-04-28 02:32 36.59543 120.00839 11307 ft 242 kts 337°
2026-04-28 02:33 36.61158 120.00198 11883 ft 245 kts 337°
2026-04-28 02:33 36.62791 119.99549 12445 ft 248 kts 336°
2026-04-28 02:33 36.64443 119.98891 12994 ft 251 kts 336°
2026-04-28 02:33 36.66119 119.98224 13544 ft 254 kts 335°
2026-04-28 02:34 36.67812 119.97550 14078 ft 257 kts 335°
2026-04-28 02:34 36.69524 119.96867 14533 ft 260 kts 335°
2026-04-28 02:34 36.71260 119.96177 15002 ft 263 kts 334°
2026-04-28 02:34 36.73004 119.95484 15499 ft 264 kts 334°
2026-04-28 02:35 36.74761 119.94782 15979 ft 266 kts 333°
2026-04-28 02:35 36.76529 119.94077 16461 ft 267 kts 333°
2026-04-28 02:35 36.78304 119.93368 16922 ft 269 kts 332°
2026-04-28 02:35 36.79973 119.92420 17396 ft 259 kts 318°
2026-04-28 02:36 36.81323 119.91004 17871 ft 250 kts 305°
2026-04-28 02:36 36.82300 119.89272 18368 ft 245 kts 293°
2026-04-28 02:36 36.82896 119.87311 18803 ft 241 kts 282°
2026-04-28 02:36 36.83084 119.85236 19215 ft 242 kts 271°
2026-04-28 02:37 36.82853 119.83148 19617 ft 246 kts 259°
2026-04-28 02:37 36.82337 119.81096 19952 ft 249 kts 258°
2026-04-28 02:37 36.81815 119.79031 20324 ft 250 kts 258°
2026-04-28 02:37 36.81269 119.76856 20313 ft 275 kts 258°
2026-04-28 02:38 36.80665 119.74473 20291 ft 300 kts 257°
2026-04-28 02:38 36.80006 119.71903 20288 ft 321 kts 257°
2026-04-28 02:38 36.79312 119.69210 20797 ft 326 kts 257°
2026-04-28 02:38 36.78629 119.66557 21442 ft 326 kts 257°
2026-04-28 02:39 36.77939 119.63853 22029 ft 328 kts 257°
2026-04-28 02:39 36.77245 119.61127 22526 ft 331 kts 256°
2026-04-28 02:39 36.76540 119.58386 23125 ft 332 kts 256°
2026-04-28 02:39 36.75830 119.55632 23680 ft 334 kts 256°
2026-04-28 02:40 36.75117 119.52856 24152 ft 336 kts 256°
2026-04-28 02:40 36.74404 119.50082 24621 ft 337 kts 256°
2026-04-28 02:40 36.73688 119.47302 25095 ft 337 kts 256°
2026-04-28 02:40 36.72969 119.44514 25551 ft 338 kts 256°
2026-04-28 02:41 36.72248 119.41722 26012 ft 339 kts 256°
2026-04-28 02:41 36.71525 119.38926 26466 ft 339 kts 255°
2026-04-28 02:41 36.70800 119.36124 26912 ft 340 kts 255°
2026-04-28 02:41 36.70072 119.33313 27356 ft 341 kts 255°
2026-04-28 02:42 36.69341 119.30496 27803 ft 342 kts 255°
2026-04-28 02:42 36.68619 119.27713 28233 ft 343 kts 255°
2026-04-28 02:42 36.67874 119.24848 28690 ft 344 kts 254°
2026-04-28 02:42 36.67136 119.22008 29033 ft 346 kts 254°
2026-04-28 02:43 36.66392 119.19151 29417 ft 347 kts 254°
2026-04-28 02:43 36.65696 119.16271 29832 ft 347 kts 257°
2026-04-28 02:43 36.65246 119.13348 30211 ft 349 kts 262°
2026-04-28 02:43 36.65041 119.10328 30527 ft 351 kts 266°
2026-04-28 02:44 36.65097 119.07267 30799 ft 355 kts 271°
2026-04-28 02:44 36.65385 119.04193 31065 ft 358 kts 273°
2026-04-28 02:44 36.65688 119.01108 31358 ft 360 kts 273°
2026-04-28 02:44 36.65994 118.98010 31626 ft 362 kts 273°
2026-04-28 02:45 36.66309 118.94895 31903 ft 363 kts 274°
2026-04-28 02:45 36.66625 118.91760 32153 ft 366 kts 274°
2026-04-28 02:45 36.66939 118.88606 32430 ft 367 kts 274°
2026-04-28 02:45 36.67253 118.85443 32683 ft 369 kts 274°
2026-04-28 02:46 36.67568 118.82267 32938 ft 370 kts 274°
2026-04-28 02:46 36.67885 118.79071 33190 ft 372 kts 274°
2026-04-28 02:46 36.68202 118.75865 33424 ft 374 kts 274°
2026-04-28 02:46 36.68518 118.72645 33657 ft 375 kts 274°
2026-04-28 02:47 36.68836 118.69409 33877 ft 377 kts 274°
2026-04-28 02:47 36.69154 118.66164 34107 ft 378 kts 274°
2026-04-28 02:47 36.69472 118.62903 34351 ft 379 kts 274°
2026-04-28 02:47 36.69784 118.59697 34635 ft 377 kts 275°
2026-04-28 02:48 36.70099 118.56457 34927 ft 376 kts 275°
2026-04-28 02:48 36.70411 118.53228 35204 ft 374 kts 275°
2026-04-28 02:48 36.70722 118.50005 35488 ft 373 kts 275°
2026-04-28 02:48 36.71030 118.46804 35766 ft 371 kts 275°
2026-04-28 02:49 36.71336 118.43615 36003 ft 371 kts 275°
2026-04-28 02:49 36.71953 118.37150 36176 ft 377 kts 275°
2026-04-28 02:50 36.72572 118.30637 36221 ft 383 kts 275°
2026-04-28 02:50 36.73193 118.24058 36220 ft 381 kts 275°
2026-04-28 02:51 36.73830 118.17513 36222 ft 380 kts 276°
2026-04-28 02:51 36.74512 118.10965 36212 ft 384 kts 275°
2026-04-28 02:52 36.75174 118.04341 36225 ft 384 kts 276°
2026-04-28 02:52 36.75840 117.97748 36229 ft 382 kts 275°
2026-04-28 02:53 36.76496 117.91173 36227 ft 382 kts 275°
2026-04-28 02:53 36.77150 117.84595 36221 ft 382 kts 275°
2026-04-28 02:54 36.77800 117.78011 36227 ft 382 kts 275°
2026-04-28 02:54 36.78448 117.71426 36225 ft 383 kts 275°
2026-04-28 02:55 36.79088 117.64865 36225 ft 383 kts 275°
2026-04-28 02:55 36.79728 117.58275 36228 ft 383 kts 275°
2026-04-28 02:56 36.80365 117.51679 36227 ft 383 kts 275°
2026-04-28 02:56 36.80999 117.45070 36221 ft 383 kts 275°
2026-04-28 02:57 36.81626 117.38502 36220 ft 381 kts 275°
2026-04-28 02:57 36.82247 117.31943 36218 ft 379 kts 275°
2026-04-28 02:58 36.82864 117.25404 36216 ft 380 kts 275°
2026-04-28 02:58 36.83142 117.18867 36229 ft 380 kts 268°
2026-04-28 02:59 36.82960 117.12260 36226 ft 381 kts 268°
2026-04-28 02:59 36.82770 117.05639 36228 ft 381 kts 268°
2026-04-28 03:00 36.82577 116.99027 36228 ft 381 kts 268°
2026-04-28 03:00 36.82381 116.92415 36210 ft 382 kts 268°
2026-04-28 03:01 36.82178 116.85743 36226 ft 385 kts 268°
2026-04-28 03:01 36.81974 116.79114 36217 ft 381 kts 268°
2026-04-28 03:02 36.81767 116.72512 36218 ft 381 kts 268°
2026-04-28 03:02 36.81557 116.65943 36223 ft 381 kts 268°
2026-04-28 03:03 36.81342 116.59331 36216 ft 381 kts 268°
2026-04-28 03:03 36.81124 116.52724 36217 ft 381 kts 268°
2026-04-28 03:04 36.80902 116.46127 36216 ft 380 kts 268°
2026-04-28 03:04 36.80677 116.39540 36220 ft 380 kts 268°
2026-04-28 03:05 36.80488 116.34073 36222 ft 379 kts 268°
2026-04-28 03:05 36.80256 116.27484 36215 ft 380 kts 268°
2026-04-28 03:06 36.80035 116.20893 36218 ft 380 kts 268°
2026-04-28 03:06 36.79809 116.14294 36171 ft 379 kts 268°
2026-04-28 03:07 36.79578 116.07674 36212 ft 385 kts 268°
2026-04-28 03:07 36.78918 116.01093 36210 ft 386 kts 259°
2026-04-28 03:08 36.77168 115.94740 36236 ft 390 kts 249°
2026-04-28 03:08 36.74743 115.88673 36212 ft 389 kts 249°
2026-04-28 03:09 36.72315 115.82652 36206 ft 388 kts 248°
2026-04-28 03:09 36.69880 115.76637 36207 ft 389 kts 248°
2026-04-28 03:10 36.67435 115.70600 36185 ft 390 kts 248°
2026-04-28 03:10 36.64969 115.64527 36200 ft 394 kts 248°
2026-04-28 03:11 36.62497 115.58453 36201 ft 392 kts 248°
2026-04-28 03:11 36.60049 115.52445 36204 ft 391 kts 248°
2026-04-28 03:12 36.57586 115.46411 36197 ft 391 kts 248°
2026-04-28 03:12 36.55112 115.40365 36197 ft 393 kts 248°
2026-04-28 03:13 36.52629 115.34306 36196 ft 394 kts 248°
2026-04-28 03:13 36.50125 115.28206 36190 ft 396 kts 248°
2026-04-28 03:14 36.47614 115.22105 36191 ft 395 kts 248°
2026-04-28 03:14 36.45132 115.16083 36190 ft 394 kts 248°
2026-04-28 03:15 36.42632 115.10027 36192 ft 393 kts 248°
2026-04-28 03:15 36.40133 115.03987 36191 ft 393 kts 248°
2026-04-28 03:16 36.37623 114.97928 36186 ft 397 kts 247°
2026-04-28 03:16 36.35085 114.91819 36192 ft 398 kts 247°
2026-04-28 03:17 36.32550 114.85726 36194 ft 397 kts 247°
2026-04-28 03:17 36.28747 114.76606 36191 ft 396 kts 247°
2026-04-28 03:18 36.26233 114.70590 36189 ft 395 kts 247°
2026-04-28 03:18 36.23696 114.64533 36191 ft 395 kts 247°
2026-04-28 03:19 36.21165 114.58498 36186 ft 395 kts 247°
2026-04-28 03:19 36.18628 114.52464 36183 ft 394 kts 247°
2026-04-28 03:20 36.16092 114.46440 36187 ft 395 kts 247°
2026-04-28 03:20 36.13562 114.40441 36188 ft 396 kts 247°
2026-04-28 03:21 36.11006 114.34394 36196 ft 396 kts 246°
2026-04-28 03:21 36.08447 114.28348 36185 ft 399 kts 246°
2026-04-28 03:22 36.05871 114.22275 36181 ft 400 kts 246°
2026-04-28 03:22 36.03287 114.16198 36180 ft 399 kts 246°
2026-04-28 03:23 36.00707 114.10134 36176 ft 398 kts 246°
2026-04-28 03:23 35.98137 114.04108 36183 ft 397 kts 246°
2026-04-28 03:24 35.95557 113.98074 36180 ft 397 kts 246°
2026-04-28 03:24 35.92976 113.92042 36177 ft 400 kts 246°
2026-04-28 03:25 35.90356 113.85932 36178 ft 402 kts 246°
2026-04-28 03:25 35.87739 113.79844 36182 ft 401 kts 246°
2026-04-28 03:26 35.85121 113.73757 36176 ft 401 kts 246°
2026-04-28 03:26 35.82505 113.67700 36166 ft 399 kts 246°
2026-04-28 03:27 35.79916 113.61705 36167 ft 397 kts 246°
2026-04-28 03:27 35.77302 113.55659 36159 ft 404 kts 246°
2026-04-28 03:28 35.75293 113.49388 36090 ft 380 kts 259°
2026-04-28 03:28 35.74801 113.46239 35777 ft 379 kts 260°
2026-04-28 03:28 35.74266 113.43040 35494 ft 383 kts 258°
2026-04-28 03:29 35.73632 113.39832 35222 ft 385 kts 257°
2026-04-28 03:29 35.72999 113.36623 34933 ft 385 kts 258°
2026-04-28 03:29 35.72407 113.33415 34641 ft 384 kts 258°
2026-04-28 03:29 35.71827 113.30252 34366 ft 383 kts 258°
2026-04-28 03:30 35.71224 113.27058 34079 ft 381 kts 258°
2026-04-28 03:30 35.70620 113.23889 33752 ft 379 kts 258°
2026-04-28 03:30 35.70023 113.20730 33449 ft 377 kts 258°
2026-04-28 03:30 35.69431 113.17585 33142 ft 375 kts 257°
2026-04-28 03:31 35.68840 113.14466 32831 ft 373 kts 257°
2026-04-28 03:31 35.68251 113.11364 32536 ft 371 kts 257°
2026-04-28 03:31 35.67664 113.08274 32233 ft 370 kts 257°
2026-04-28 03:31 35.67086 113.05237 31939 ft 367 kts 257°
2026-04-28 03:32 35.66504 113.02180 31581 ft 367 kts 257°
2026-04-28 03:32 35.65921 112.99127 31306 ft 367 kts 256°
2026-04-28 03:32 35.65340 112.96087 31030 ft 364 kts 256°
2026-04-28 03:32 35.64760 112.93057 30735 ft 362 kts 256°
2026-04-28 03:33 35.64183 112.90049 30463 ft 360 kts 256°
2026-04-28 03:33 35.63607 112.87049 30175 ft 359 kts 256°
2026-04-28 03:33 35.63035 112.84073 29833 ft 357 kts 256°
2026-04-28 03:33 35.62461 112.81097 29492 ft 357 kts 256°
2026-04-28 03:34 35.61896 112.78168 29202 ft 357 kts 256°
2026-04-28 03:34 35.61323 112.75190 28884 ft 357 kts 256°
2026-04-28 03:34 35.60749 112.72227 28562 ft 356 kts 256°
2026-04-28 03:34 35.60175 112.69264 28252 ft 355 kts 256°
2026-04-28 03:35 35.59603 112.66313 27946 ft 355 kts 256°
2026-04-28 03:35 35.59030 112.63360 27636 ft 355 kts 256°
2026-04-28 03:35 35.58455 112.60401 27338 ft 355 kts 256°
2026-04-28 03:35 35.57878 112.57443 27040 ft 355 kts 256°
2026-04-28 03:36 35.57304 112.54496 26749 ft 354 kts 256°
2026-04-28 03:36 35.56735 112.51583 26448 ft 354 kts 256°
2026-04-28 03:36 35.56159 112.48637 26162 ft 354 kts 256°
2026-04-28 03:36 35.55583 112.45695 25867 ft 353 kts 256°
2026-04-28 03:37 35.55009 112.42765 25562 ft 354 kts 256°
2026-04-28 03:37 35.54431 112.39819 25282 ft 355 kts 256°
2026-04-28 03:37 35.53857 112.36901 25011 ft 355 kts 256°
2026-04-28 03:37 35.53277 112.33950 24734 ft 356 kts 256°
2026-04-28 03:38 35.52693 112.30997 24455 ft 356 kts 256°
2026-04-28 03:38 35.52110 112.28043 24192 ft 356 kts 256°
2026-04-28 03:38 35.51526 112.25086 23925 ft 356 kts 256°
2026-04-28 03:38 35.50943 112.22138 23641 ft 355 kts 256°
2026-04-28 03:39 35.50358 112.19186 23320 ft 355 kts 256°
2026-04-28 03:39 35.49773 112.16240 22998 ft 355 kts 257°
2026-04-28 03:39 35.49190 112.13306 22786 ft 352 kts 257°
2026-04-28 03:39 35.48610 112.10396 22566 ft 352 kts 257°
2026-04-28 03:40 35.48035 112.07511 22333 ft 352 kts 257°
2026-04-28 03:40 35.47452 112.04585 22099 ft 352 kts 257°
2026-04-28 03:40 35.46868 112.01672 21868 ft 352 kts 257°
2026-04-28 03:40 35.46284 111.98749 21634 ft 353 kts 257°
2026-04-28 03:41 35.45699 111.95829 21413 ft 352 kts 257°
2026-04-28 03:41 35.45113 111.92912 21195 ft 353 kts 257°
2026-04-28 03:41 35.44526 111.89985 20961 ft 352 kts 257°
2026-04-28 03:41 35.43940 111.87069 20737 ft 351 kts 257°
2026-04-28 03:42 35.43360 111.84194 20511 ft 352 kts 257°
2026-04-28 03:42 35.42769 111.81267 20285 ft 354 kts 258°
2026-04-28 03:42 35.42177 111.78331 20056 ft 355 kts 258°
2026-04-28 03:42 35.41580 111.75383 19855 ft 356 kts 258°
2026-04-28 03:43 35.40983 111.72434 19642 ft 356 kts 258°
2026-04-28 03:43 35.40386 111.69495 19425 ft 356 kts 258°
2026-04-28 03:43 35.39788 111.66546 19213 ft 356 kts 258°
2026-04-28 03:43 35.39192 111.63603 19015 ft 355 kts 258°
2026-04-28 03:44 35.38593 111.60661 18821 ft 355 kts 258°
2026-04-28 03:44 35.37991 111.57729 18618 ft 356 kts 258°
2026-04-28 03:44 35.37390 111.54784 18412 ft 356 kts 258°
2026-04-28 03:44 35.36789 111.51836 18168 ft 356 kts 258°
2026-04-28 03:45 35.36187 111.48893 17928 ft 356 kts 258°
2026-04-28 03:45 35.35589 111.45981 17697 ft 357 kts 258°
2026-04-28 03:45 35.34983 111.43027 17449 ft 357 kts 258°
2026-04-28 03:45 35.34374 111.40065 17190 ft 358 kts 259°
2026-04-28 03:46 35.33763 111.37101 16956 ft 357 kts 259°
2026-04-28 03:46 35.33155 111.34148 16725 ft 357 kts 259°
2026-04-28 03:46 35.32547 111.31202 16495 ft 357 kts 259°
2026-04-28 03:46 35.31947 111.28298 16332 ft 355 kts 259°
2026-04-28 03:47 35.31341 111.25368 16164 ft 353 kts 259°
2026-04-28 03:47 35.30735 111.22446 16002 ft 352 kts 259°
2026-04-28 03:47 35.30134 111.19547 15840 ft 351 kts 259°
2026-04-28 03:47 35.29533 111.16651 15700 ft 351 kts 259°
2026-04-28 03:48 35.28930 111.13751 15549 ft 350 kts 259°
2026-04-28 03:48 35.28329 111.10867 15395 ft 349 kts 259°
2026-04-28 03:48 35.27932 111.08963 15299 ft 349 kts 259°
2026-04-28 03:48 35.27130 111.05121 15091 ft 348 kts 259°
2026-04-28 03:49 35.26531 111.02258 14959 ft 347 kts 259°
2026-04-28 03:49 35.26135 111.00363 14858 ft 347 kts 259°
2026-04-28 03:49 35.25537 110.97511 14717 ft 346 kts 259°
2026-04-28 03:49 35.24939 110.94658 14576 ft 346 kts 259°
2026-04-28 03:50 35.24146 110.90884 14385 ft 345 kts 259°
2026-04-28 03:50 35.23741 110.88960 14291 ft 345 kts 259°
2026-04-28 03:50 35.23145 110.86125 14140 ft 344 kts 259°
2026-04-28 03:50 35.22546 110.83286 14016 ft 344 kts 259°
2026-04-28 03:51 35.21954 110.80484 13853 ft 344 kts 259°
2026-04-28 03:51 35.21356 110.77646 13693 ft 344 kts 259°
2026-04-28 03:51 35.20756 110.74810 13535 ft 344 kts 259°
2026-04-28 03:51 35.20157 110.71985 13376 ft 344 kts 259°
2026-04-28 03:52 35.19557 110.69156 13229 ft 343 kts 259°
2026-04-28 03:52 35.18955 110.66326 13068 ft 344 kts 259°
2026-04-28 03:52 35.18355 110.63501 12908 ft 343 kts 259°
2026-04-28 03:52 35.17752 110.60672 12750 ft 344 kts 258°
2026-04-28 03:53 35.17146 110.57830 12590 ft 345 kts 258°
2026-04-28 03:53 35.16548 110.55026 12443 ft 345 kts 258°
2026-04-28 03:53 35.15941 110.52187 12295 ft 346 kts 258°
2026-04-28 03:53 35.15333 110.49344 12150 ft 346 kts 258°
2026-04-28 03:54 35.14724 110.46502 11994 ft 346 kts 258°
2026-04-28 03:54 35.14112 110.43650 11851 ft 346 kts 258°
2026-04-28 03:54 35.13501 110.40804 11698 ft 346 kts 257°
2026-04-28 03:54 35.12888 110.37957 11543 ft 346 kts 257°
2026-04-28 03:55 35.12276 110.35113 11408 ft 347 kts 257°
2026-04-28 03:55 35.11662 110.32269 11256 ft 346 kts 257°
2026-04-28 03:55 35.11050 110.29427 11120 ft 346 kts 257°
2026-04-28 03:55 35.10434 110.26579 10967 ft 347 kts 257°
2026-04-28 03:56 35.09819 110.23737 10820 ft 346 kts 257°
2026-04-28 03:56 35.09202 110.20891 10681 ft 346 kts 257°
2026-04-28 03:56 35.08583 110.18050 10543 ft 346 kts 256°
2026-04-28 03:56 35.07770 110.15279 10403 ft 347 kts 249°
2026-04-28 03:57 35.06793 110.12575 10242 ft 348 kts 247°
2026-04-28 03:57 35.05774 110.09891 10102 ft 348 kts 246°
2026-04-28 03:57 35.04752 110.07216 9965 ft 348 kts 246°
2026-04-28 03:57 35.03739 110.04575 9805 ft 348 kts 246°
2026-04-28 03:58 35.02719 110.01891 9650 ft 348 kts 246°
2026-04-28 03:58 35.01705 109.99210 9499 ft 348 kts 247°
2026-04-28 03:58 35.00687 109.96527 9346 ft 348 kts 246°
2026-04-28 03:58 34.99668 109.93842 9178 ft 349 kts 246°
2026-04-28 03:59 34.98642 109.91154 9026 ft 349 kts 246°
2026-04-28 03:59 34.97617 109.88474 8894 ft 349 kts 246°
2026-04-28 03:59 34.96610 109.85818 8730 ft 349 kts 246°
2026-04-28 03:59 34.95591 109.83123 8589 ft 349 kts 246°
2026-04-28 04:00 34.94579 109.80423 8434 ft 350 kts 246°
2026-04-28 04:00 34.93570 109.77727 8283 ft 350 kts 246°
2026-04-28 04:00 34.92558 109.75025 8141 ft 350 kts 246°
2026-04-28 04:00 34.91548 109.72328 7993 ft 350 kts 246°
2026-04-28 04:01 34.90535 109.69623 7850 ft 351 kts 246°
2026-04-28 04:01 34.89520 109.66912 7698 ft 351 kts 246°
2026-04-28 04:01 34.88520 109.64233 7556 ft 351 kts 246°
2026-04-28 04:01 34.87513 109.61524 7403 ft 350 kts 246°
2026-04-28 04:02 34.86509 109.58801 7066 ft 356 kts 246°
2026-04-28 04:02 34.85483 109.56027 6685 ft 362 kts 246°
2026-04-28 04:02 34.84440 109.53206 6307 ft 367 kts 246°
2026-04-28 04:02 34.83382 109.50346 5905 ft 371 kts 246°
2026-04-28 04:03 34.82336 109.47505 5535 ft 374 kts 246°
2026-04-28 04:03 34.81271 109.44597 5141 ft 376 kts 246°
2026-04-28 04:03 34.80215 109.41691 4982 ft 372 kts 246°
2026-04-28 04:03 34.79191 109.38847 4983 ft 363 kts 246°
2026-04-28 04:04 34.78185 109.36056 4978 ft 357 kts 246°
2026-04-28 04:04 34.77197 109.33317 4978 ft 351 kts 246°
2026-04-28 04:04 34.76218 109.30610 4977 ft 347 kts 246°
2026-04-28 04:04 34.75249 109.27933 4976 ft 345 kts 246°
2026-04-28 04:05 34.74255 109.25296 4969 ft 341 kts 244°
2026-04-28 04:05 34.73181 109.22780 4969 ft 339 kts 242°
2026-04-28 04:05 34.72070 109.20266 4974 ft 336 kts 242°
2026-04-28 04:05 34.70954 109.17765 4974 ft 335 kts 241°
2026-04-28 04:06 34.69843 109.15271 4973 ft 334 kts 242°
2026-04-28 04:06 34.68738 109.12793 4968 ft 334 kts 242°
2026-04-28 04:06 34.67631 109.10309 4977 ft 332 kts 242°
2026-04-28 04:06 34.66765 109.07774 4969 ft 330 kts 259°
2026-04-28 04:07 34.66592 109.05009 4975 ft 328 kts 270°
2026-04-28 04:07 34.66595 109.02243 4972 ft 327 kts 270°
2026-04-28 04:07 34.66445 108.99477 4979 ft 328 kts 263°
2026-04-28 04:07 34.66093 108.96732 4986 ft 328 kts 261°
2026-04-28 04:08 34.65746 108.93997 4981 ft 328 kts 263°
2026-04-28 04:08 34.65470 108.91239 4981 ft 328 kts 264°
2026-04-28 04:08 34.65205 108.88488 4981 ft 327 kts 263°
2026-04-28 04:08 34.64920 108.85780 4982 ft 327 kts 263°
2026-04-28 04:09 34.64619 108.83037 4981 ft 327 kts 263°
2026-04-28 04:09 34.64328 108.80295 4979 ft 327 kts 263°
2026-04-28 04:09 34.64039 108.77556 4982 ft 326 kts 263°
2026-04-28 04:09 34.63751 108.74824 4984 ft 325 kts 263°
2026-04-28 04:10 34.63458 108.72098 4982 ft 324 kts 263°
2026-04-28 04:10 34.63172 108.69421 4979 ft 323 kts 263°
2026-04-28 04:10 34.62883 108.66715 4977 ft 323 kts 263°
2026-04-28 04:10 34.62592 108.64005 4975 ft 322 kts 263°
2026-04-28 04:11 34.62304 108.61337 4972 ft 310 kts 263°
2026-04-28 04:11 34.62033 108.58823 4828 ft 291 kts 263°
2026-04-28 04:11 34.61777 108.56459 4707 ft 269 kts 263°
2026-04-28 04:11 34.61546 108.54324 4583 ft 242 kts 263°
2026-04-28 04:12 34.61336 108.52373 4444 ft 226 kts 263°
2026-04-28 04:12 34.61133 108.50503 4303 ft 221 kts 263°
2026-04-28 04:12 34.60934 108.48664 4171 ft 219 kts 263°
2026-04-28 04:12 34.60735 108.46831 4045 ft 218 kts 262°
2026-04-28 04:13 34.60535 108.45010 3973 ft 216 kts 262°
2026-04-28 04:13 34.60340 108.43222 3972 ft 218 kts 262°
2026-04-28 04:13 34.60140 108.41382 3982 ft 219 kts 261°
2026-04-28 04:13 34.59938 108.39553 3976 ft 219 kts 262°
2026-04-28 04:14 34.59736 108.37727 3975 ft 218 kts 261°
2026-04-28 04:14 34.59177 108.36050 3933 ft 216 kts 230°
2026-04-28 04:14 34.57947 108.35051 3948 ft 216 kts 197°
2026-04-28 04:14 34.56463 108.35050 3963 ft 215 kts 167°
2026-04-28 04:15 34.55021 108.35534 3977 ft 215 kts 163°
2026-04-28 04:15 34.53581 108.36041 3979 ft 216 kts 163°
2026-04-28 04:15 34.50701 108.37008 3995 ft 216 kts 164°
2026-04-28 04:16 34.49251 108.37491 3991 ft 216 kts 164°
2026-04-28 04:16 34.47805 108.37974 3981 ft 216 kts 164°
2026-04-28 04:16 34.46356 108.38459 3983 ft 216 kts 164°
2026-04-28 04:16 34.44905 108.38944 3982 ft 216 kts 164°
2026-04-28 04:17 34.43454 108.39428 3979 ft 216 kts 164°
2026-04-28 04:17 34.42003 108.39912 3978 ft 216 kts 164°
2026-04-28 04:17 34.40549 108.40397 3976 ft 216 kts 164°
2026-04-28 04:17 34.39101 108.40880 3980 ft 216 kts 164°
2026-04-28 04:18 34.37654 108.41362 3985 ft 215 kts 164°
2026-04-28 04:18 34.36225 108.41839 3983 ft 216 kts 164°
2026-04-28 04:18 34.34779 108.42320 3982 ft 216 kts 164°
2026-04-28 04:18 34.33331 108.42803 3977 ft 217 kts 165°
2026-04-28 04:19 34.31867 108.43293 3974 ft 218 kts 165°
2026-04-28 04:19 34.30405 108.43777 3971 ft 218 kts 165°
2026-04-28 04:19 34.28943 108.44263 3965 ft 218 kts 165°
2026-04-28 04:19 34.27481 108.44750 3975 ft 217 kts 165°
2026-04-28 04:20 34.26024 108.45235 3980 ft 217 kts 165°
2026-04-28 04:20 34.24705 108.46044 3945 ft 218 kts 137°
2026-04-28 04:20 34.23892 108.47563 3951 ft 218 kts 108°
2026-04-28 04:20 34.23931 108.49356 3946 ft 217 kts 69°
2026-04-28 04:21 34.24607 108.50978 3962 ft 217 kts 57°
2026-04-28 04:21 34.25556 108.52388 3973 ft 216 kts 48°
2026-04-28 04:21 34.26550 108.53751 3973 ft 216 kts 48°
2026-04-28 04:21 34.27545 108.55118 3978 ft 216 kts 48°
2026-04-28 04:22 34.28537 108.56481 3979 ft 216 kts 48°
2026-04-28 04:22 34.29533 108.57849 3979 ft 216 kts 48°
2026-04-28 04:22 34.30524 108.59211 3984 ft 216 kts 48°
2026-04-28 04:22 34.31504 108.60554 3980 ft 211 kts 49°
2026-04-28 04:23 34.32420 108.61812 3964 ft 181 kts 49°
2026-04-28 04:23 34.33181 108.62857 3960 ft 155 kts 49°
2026-04-28 04:23 34.33880 108.63818 3901 ft 154 kts 49°
2026-04-28 04:23 34.34584 108.64784 3712 ft 150 kts 49°
2026-04-28 04:24 34.35277 108.65736 3516 ft 151 kts 49°
2026-04-28 04:24 34.35969 108.66686 3339 ft 151 kts 50°
2026-04-28 04:24 34.36656 108.67629 3124 ft 149 kts 50°
2026-04-28 04:24 34.37339 108.68573 2934 ft 149 kts 50°
2026-04-28 04:25 34.38012 108.69497 2755 ft 148 kts 50°
2026-04-28 04:25 34.38690 108.70436 2552 ft 148 kts 49°
2026-04-28 04:25 34.39370 108.71374 2357 ft 147 kts 48°
2026-04-28 04:25 34.40041 108.72287 2157 ft 144 kts 48°
2026-04-28 04:26 34.40713 108.73203 1967 ft 146 kts 48°
2026-04-28 04:26 34.41379 108.74113 1784 ft 144 kts 50°
2026-04-28 04:26 34.42049 108.75033 1624 ft 145 kts 50°
2026-04-28 04:26 34.42690 108.75924 1520 ft 129 kts 49°
2026-04-28 04:27 34.43121 108.76522 1525 ft 60 kts 49°
2026-04-28 04:27 34.43301 108.76771 1521 ft 22 kts 50°
2026-04-28 04:27 34.43374 108.76872 1523 ft 16 kts 46°
2026-04-28 04:27 34.43458 108.76959 1518 ft 16 kts 36°
2026-04-28 04:28 34.43558 108.77032 1518 ft 17 kts 26°
2026-04-28 04:28 34.43673 108.77084 1523 ft 18 kts 19°
2026-04-28 04:28 34.43787 108.77145 1520 ft 18 kts 32°
2026-04-28 04:28 34.43879 108.77252 1522 ft 18 kts 48°
2026-04-28 04:29 34.43963 108.77366 1521 ft 18 kts 48°
2026-04-28 04:29 34.44046 108.77478 1523 ft 18 kts 48°
2026-04-28 04:29 34.44127 108.77594 1519 ft 18 kts 50°
2026-04-28 04:29 34.44208 108.77708 1519 ft 18 kts 49°
2026-04-28 04:30 34.44291 108.77822 1518 ft 18 kts 48°
2026-04-28 04:30 34.44379 108.77927 1520 ft 16 kts 26°
2026-04-28 04:30 34.44451 108.77896 1523 ft 9 kts 311°
2026-04-28 04:30 34.44499 108.77837 1520 ft 11 kts 317°
2026-04-28 04:31 34.44560 108.77774 1520 ft 12 kts 320°
2026-04-28 04:31 34.44633 108.77707 1518 ft 14 kts 326°
2026-04-28 04:31 34.44712 108.77632 1520 ft 15 kts 319°
2026-04-28 04:31 34.44795 108.77545 1521 ft 16 kts 319°
2026-04-28 04:32 34.44885 108.77452 1518 ft 18 kts 319°
2026-04-28 04:32 34.44973 108.77344 1520 ft 18 kts 314°
2026-04-28 04:32 34.45020 108.77323 1520 ft 2 kts 23°
2026-04-28 04:32 34.45036 108.77337 1521 ft 5 kts 35°
2026-04-28 04:33 34.45071 108.77377 1521 ft 9 kts 47°
2026-04-28 04:33 34.45122 108.77423 1523 ft 7 kts 10°
2026-04-28 04:33 34.45175 108.77398 1518 ft 10 kts 325°
2026-04-28 04:33 34.45231 108.77342 1521 ft 11 kts 320°
2026-04-28 04:34 34.45244 108.77328 1521 ft 0 kts 319°